Flag for Germany Weather past 2 weeks in Dormagen, North Rhine-Westphalia, Germany

Now
59 °F

Sunny.


Feels Like: 57 °F
Forecast: 52 / 62 °F
Wind: 9 mph from South

Location: Duesseldorf

Current Time: Aug 22, 2014 at 10:20:54 AM

Latest Report: Aug 22, 2014 at 9:50 AM


Visibility: 10 mi

Pressure: 29.89 "Hg

Humidity: 68%

Dew point: 48 °F

Location of DormagenLocation

Historic Weather in Dormagen — Graph

°F

Dormagen temperature yesterday

Maximum temperature yesterday: 66 °F (at 4:50 PM)
Minimum temperature yesterday: 46 °F (at 4:20 AM)
Average temperature yesterday: 56 °F

Past Weeks' High & Low Weather Summary

 TemperatureHumidityPressure
High77 °F (Aug 7, 4:50 PM)94% (Aug 8, 4:50 AM)30.09 "Hg (Aug 8, 4:50 AM)
Low46 °F (Aug 20, 2:50 AM)43% (Aug 11, 3:50 PM)29.56 "Hg (Aug 10, 6:20 PM)
Average61 °F75%29.86 "Hg
* Reported Aug 7 9:20 AM — Aug 22 9:20 AM, Dormagen, Weather by CustomWeather, © 2014

Note: Actual official high and low records may vary slightly from our data, if they occured in-between our weather recording intervals... More about our weather records

Advertising

Dormagen weather history for previous 24 hours

 ConditionsComfort  
Time TempWeatherWind HumidityBarometerVisibility
9:20 AM
Aug 22
57 °FSunny.12 mph72%29.89 "Hg10 mi
8:50 AM57 °FPartly sunny.9 mph77%29.89 "HgN/A
8:20 AM55 °FPartly sunny.9 mph77%29.89 "HgN/A
7:50 AM54 °FSunny.10 mph82%29.89 "Hg10 mi
7:20 AM54 °FClear.13 mph82%29.92 "Hg10 mi
6:50 AM54 °FClear.12 mph82%29.92 "Hg10 mi
6:20 AM52 °FClear.10 mph88%29.92 "Hg10 mi
5:50 AM52 °FClear.7 mph82%29.92 "Hg10 mi
5:20 AM54 °FClear.7 mph82%29.92 "Hg10 mi
4:20 AM55 °FClear.7 mph77%29.92 "Hg10 mi
3:50 AM54 °FClear.7 mph82%29.95 "Hg10 mi
3:20 AM54 °FClear.7 mph82%29.95 "Hg10 mi
2:50 AM54 °FClear.8 mph82%29.95 "Hg10 mi
2:20 AM54 °FClear.8 mph82%29.95 "Hg10 mi
1:50 AM55 °FClear.8 mph77%29.95 "Hg10 mi
1:20 AM55 °FClear.9 mph77%29.95 "Hg10 mi
12:50 AM55 °FClear.8 mph77%29.95 "Hg10 mi
12:20 AM57 °FClear.8 mph72%29.95 "Hg10 mi
11:50 PM
Aug 21
57 °FClear.9 mph72%29.95 "Hg10 mi
11:20 PM59 °FClear.8 mph68%29.98 "Hg10 mi
10:50 PM59 °FClear.8 mph68%29.98 "Hg10 mi
10:20 PM59 °FClear.8 mph68%29.98 "Hg10 mi
9:50 PM59 °FClear.7 mph68%29.98 "Hg10 mi
9:20 PM57 °FSunny.9 mph77%29.98 "Hg10 mi
8:50 PM59 °FScattered showers. Broken clouds.12 mph72%29.95 "HgN/A
8:20 PM61 °FRain showers. Broken clouds.9 mph63%29.95 "HgN/A
7:50 PM63 °FBroken clouds.8 mph59%29.95 "HgN/A
7:20 PM63 °FScattered clouds.5 mph56%29.95 "HgN/A
6:50 PM64 °FScattered clouds.7 mph49%29.98 "HgN/A
6:20 PM63 °FBroken clouds.7 mph56%29.98 "HgN/A
5:50 PM63 °FBroken clouds.7 mph52%29.98 "HgN/A
5:20 PM64 °FPartly sunny.7 mph49%29.98 "HgN/A
4:50 PM66 °FPartly sunny.8 mph49%29.98 "HgN/A
4:20 PM64 °FPartly sunny.8 mph49%30.01 "HgN/A
3:50 PM63 °FPartly sunny.9 mph52%30.01 "HgN/A
3:20 PM63 °FPartly sunny.9 mph52%30.01 "HgN/A
2:50 PM63 °FScattered clouds.10 mph52%30.01 "HgN/A
2:20 PM63 °FScattered clouds.10 mph52%30.01 "HgN/A
1:50 PM64 °FScattered clouds.9 mph49%30.01 "HgN/A
1:20 PM63 °FScattered clouds.9 mph56%30.04 "HgN/A
12:50 PM63 °FScattered clouds.13 mph64%30.04 "HgN/A
12:20 PM61 °FScattered clouds.10 mph63%30.04 "HgN/A
11:50 AM61 °FPassing clouds.10 mph63%30.04 "HgN/A
11:20 AM59 °FPassing clouds.10 mph68%30.04 "HgN/A
10:50 AM59 °FPassing clouds.6 mph72%30.04 "HgN/A
10:20 AM57 °FPassing clouds.6 mph77%30.04 "HgN/A
Weather by CustomWeather, © 2014

See weather overviewHow to use our weather pages